Location: Unspecified
(0.0000°N, 0.0000°E)
Time: 05:29:59
(UTC+00:00)

A-11 Canister half - Pass Details

Date: 18 April 2026
Orbit: 1523 x 1685 km, 47.3° (Epoch: 13 May)

Event Time Altitude Azimuth Distance (km) Brightness Sun altitude
Rises 21:03:17 0° 220° (SW) 4,739 11.8 -44.9°
Reaches altitude 10° 21:06:18 10° 220° (SW) 3,774 11.2 -45.6°
Enters shadow 21:09:40 26° 221° (SW) 2,750 10.4 -46.4°
Maximum altitude 21:15:57 87° 310° (NW) 1,619 - -47.9°
Drops below altitude 10° 21:25:56 10° 38° (NE) 3,892 - -50.3°
Sets 21:29:06 0° 39° (NE) 4,894 - -51.1°
